Time,TemperatureF,DewpointF,PressureIn,WindDirection,WindDirectionDegrees,WindSpeedMPH,WindSpeedGustMPH,Humidity,HourlyPrecipIn,Conditions,Clouds,dailyrainin,SolarRadiationWatts/m^2,SoftwareType,DateUTC
2013-01-30 00:11:00,28.0,23.0,-100.00,North,357,12.0,20.0,81,0.00,,,0.07,1.000000,,2013-01-30 06:11:00,
2013-01-30 00:21:00,28.0,23.0,-100.00,North,357,12.0,20.0,81,0.00,,,0.07,1.000000,,2013-01-30 06:21:00,
2013-01-30 00:32:00,28.0,23.0,-100.00,North,357,12.0,20.0,81,0.00,,,0.07,1.000000,,2013-01-30 06:32:00,
2013-01-30 00:42:00,28.0,23.0,-100.00,North,357,12.0,20.0,81,0.00,,,0.07,1.000000,,2013-01-30 06:42:00,
2013-01-30 01:11:00,27.0,22.0,-100.00,North,357,12.0,20.0,81,0.00,,,0.06,1.000000,,2013-01-30 07:11:00,
2013-01-30 01:21:00,27.0,22.0,-100.00,North,357,12.0,20.0,81,0.00,,,0.06,1.000000,,2013-01-30 07:21:00,
2013-01-30 01:32:00,27.0,22.0,-100.00,North,357,12.0,20.0,81,0.00,,,0.06,1.000000,,2013-01-30 07:32:00,
2013-01-30 01:41:00,27.0,22.0,-100.00,North,357,12.0,20.0,81,0.00,,,0.06,1.000000,,2013-01-30 07:41:00,
2013-01-30 02:11:00,26.0,19.0,-100.00,North,353,11.0,20.0,76,0.00,,,0.06,1.000000,,2013-01-30 08:11:00,
2013-01-30 02:21:00,26.0,19.0,-100.00,North,353,11.0,20.0,76,0.00,,,0.06,1.000000,,2013-01-30 08:21:00,
2013-01-30 02:32:00,26.0,19.0,-100.00,North,353,11.0,20.0,76,0.00,,,0.06,1.000000,,2013-01-30 08:32:00,
2013-01-30 02:42:00,26.0,19.0,-100.00,North,353,11.0,20.0,76,0.00,,,0.06,1.000000,,2013-01-30 08:42:00,
2013-01-30 03:11:00,25.0,19.0,-100.00,NNW,348,13.0,21.0,77,0.00,,,0.06,1.000000,,2013-01-30 09:11:00,
2013-01-30 03:21:00,25.0,19.0,-100.00,NNW,348,13.0,21.0,77,0.00,,,0.06,1.000000,,2013-01-30 09:21:00,
2013-01-30 03:32:00,25.0,19.0,-100.00,NNW,348,13.0,21.0,77,0.00,,,0.06,1.000000,,2013-01-30 09:32:00,
2013-01-30 03:42:00,25.0,19.0,-100.00,NNW,348,13.0,21.0,77,0.00,,,0.06,1.000000,,2013-01-30 09:42:00,
2013-01-30 04:01:00,24.0,18.0,-100.00,North,350,12.0,22.0,79,0.00,,,0.06,1.000000,,2013-01-30 10:01:00,
2013-01-30 04:11:00,24.0,18.0,-100.00,North,350,12.0,22.0,79,0.00,,,0.06,1.000000,,2013-01-30 10:11:00,
2013-01-30 04:21:00,24.0,18.0,-100.00,North,350,12.0,22.0,79,0.00,,,0.06,1.000000,,2013-01-30 10:21:00,
2013-01-30 04:32:00,24.0,18.0,-100.00,North,350,12.0,22.0,79,0.00,,,0.06,1.000000,,2013-01-30 10:32:00,
2013-01-30 04:41:00,24.0,18.0,-100.00,North,350,12.0,22.0,79,0.00,,,0.06,1.000000,,2013-01-30 10:41:00,
2013-01-30 05:11:00,24.0,19.0,-100.00,NNW,337,11.0,17.0,81,0.00,,,0.06,1.000000,,2013-01-30 11:11:00,
2013-01-30 05:22:00,24.0,19.0,-100.00,NNW,337,11.0,17.0,81,0.00,,,0.06,1.000000,,2013-01-30 11:22:00,
2013-01-30 05:33:00,24.0,19.0,-100.00,NNW,337,11.0,17.0,81,0.00,,,0.06,1.000000,,2013-01-30 11:33:00,
2013-01-30 05:42:00,24.0,19.0,-100.00,NNW,337,11.0,17.0,81,0.00,,,0.06,1.000000,,2013-01-30 11:42:00,
2013-01-30 06:12:00,23.0,18.0,-100.00,NNW,331,12.0,16.0,82,0.00,,,0.06,1.000000,,2013-01-30 12:12:00,
2013-01-30 06:22:00,23.0,18.0,-100.00,NNW,331,12.0,16.0,82,0.00,,,0.06,1.000000,,2013-01-30 12:22:00,
2013-01-30 06:33:00,23.0,18.0,-100.00,NNW,331,12.0,16.0,82,0.00,,,0.06,1.000000,,2013-01-30 12:33:00,
2013-01-30 06:42:00,23.0,18.0,-100.00,NNW,331,12.0,16.0,82,0.00,,,0.06,1.000000,,2013-01-30 12:42:00,
2013-01-30 07:12:00,21.0,16.0,-100.00,NW,325,15.0,23.0,81,0.00,,,0.06,1.000000,,2013-01-30 13:12:00,
2013-01-30 07:23:00,21.0,16.0,-100.00,NW,325,15.0,23.0,81,0.00,,,0.06,1.000000,,2013-01-30 13:23:00,
2013-01-30 07:33:00,21.0,16.0,-100.00,NW,325,15.0,23.0,81,0.00,,,0.06,1.000000,,2013-01-30 13:33:00,
2013-01-30 07:42:00,21.0,16.0,-100.00,NW,325,15.0,23.0,81,0.00,,,0.06,1.000000,,2013-01-30 13:42:00,
2013-01-30 08:12:00,19.0,13.0,-100.00,NNW,333,13.0,24.0,78,0.00,,,0.06,2.000000,,2013-01-30 14:12:00,
2013-01-30 08:23:00,19.0,13.0,-100.00,NNW,333,13.0,24.0,78,0.00,,,0.06,2.000000,,2013-01-30 14:23:00,
2013-01-30 08:33:00,19.0,13.0,-100.00,NNW,333,13.0,24.0,78,0.00,,,0.06,2.000000,,2013-01-30 14:33:00,
2013-01-30 08:42:00,19.0,13.0,-100.00,NNW,333,13.0,24.0,78,0.00,,,0.06,2.000000,,2013-01-30 14:42:00,
2013-01-30 09:12:00,18.0,12.0,-100.00,NNW,329,11.0,25.0,77,0.00,,,0.06,25.000000,,2013-01-30 15:12:00,
2013-01-30 09:23:00,18.0,12.0,-100.00,NNW,329,11.0,25.0,77,0.00,,,0.06,25.000000,,2013-01-30 15:23:00,
2013-01-30 09:33:00,18.0,12.0,-100.00,NNW,329,11.0,25.0,77,0.00,,,0.06,25.000000,,2013-01-30 15:33:00,
2013-01-30 09:43:00,18.0,12.0,-100.00,NNW,329,11.0,25.0,77,0.00,,,0.06,25.000000,,2013-01-30 15:43:00,
2013-01-30 10:12:00,17.0,10.0,-100.00,NNW,334,11.0,26.0,73,0.00,,,0.05,70.000000,,2013-01-30 16:12:00,
2013-01-30 10:23:00,17.0,10.0,-100.00,NNW,334,11.0,26.0,73,0.00,,,0.05,70.000000,,2013-01-30 16:23:00,
2013-01-30 10:32:00,17.0,10.0,-100.00,NNW,334,11.0,26.0,73,0.00,,,0.05,70.000000,,2013-01-30 16:32:00,
2013-01-30 10:42:00,17.0,10.0,-100.00,NNW,334,11.0,26.0,73,0.00,,,0.05,70.000000,,2013-01-30 16:42:00,
2013-01-30 11:12:00,17.0,10.0,-100.00,NW,321,13.0,21.0,75,0.00,,,0.03,110.000000,,2013-01-30 17:12:00,
2013-01-30 11:23:00,17.0,10.0,-100.00,NW,321,13.0,21.0,75,0.00,,,0.03,110.000000,,2013-01-30 17:23:00,
2013-01-30 11:33:00,17.0,10.0,-100.00,NW,321,13.0,21.0,75,0.00,,,0.03,110.000000,,2013-01-30 17:33:00,
2013-01-30 11:42:00,17.0,10.0,-100.00,NW,321,13.0,21.0,75,0.00,,,0.03,110.000000,,2013-01-30 17:42:00,
2013-01-30 12:12:00,17.0,9.0,-100.00,NW,322,13.0,22.0,71,0.00,,,0.01,174.000000,,2013-01-30 18:12:00,
2013-01-30 12:23:00,17.0,9.0,-100.00,NW,322,13.0,22.0,71,0.00,,,0.01,174.000000,,2013-01-30 18:23:00,
2013-01-30 12:33:00,17.0,9.0,-100.00,NW,322,13.0,22.0,71,0.00,,,0.01,174.000000,,2013-01-30 18:33:00,
2013-01-30 12:42:00,17.0,9.0,-100.00,NW,322,13.0,22.0,71,0.00,,,0.01,174.000000,,2013-01-30 18:42:00,
2013-01-30 13:12:00,17.0,9.0,-100.00,NNW,329,14.0,22.0,70,0.00,,,0.00,188.000000,,2013-01-30 19:12:00,
2013-01-30 13:22:00,17.0,9.0,-100.00,NNW,329,14.0,22.0,70,0.00,,,0.00,188.000000,,2013-01-30 19:22:00,
2013-01-30 13:32:00,17.0,9.0,-100.00,NNW,329,14.0,22.0,70,0.00,,,0.00,188.000000,,2013-01-30 19:32:00,
2013-01-30 13:43:00,17.0,9.0,-100.00,NNW,329,14.0,22.0,70,0.00,,,0.00,188.000000,,2013-01-30 19:43:00,
2013-01-30 14:12:00,17.0,9.0,-100.00,NW,325,16.0,24.0,69,0.00,,,0.00,189.000000,,2013-01-30 20:12:00,
2013-01-30 14:22:00,17.0,9.0,-100.00,NW,325,16.0,24.0,69,0.00,,,0.00,189.000000,,2013-01-30 20:22:00,
2013-01-30 14:33:00,17.0,9.0,-100.00,NW,325,16.0,24.0,69,0.00,,,0.00,189.000000,,2013-01-30 20:33:00,
2013-01-30 14:42:00,17.0,9.0,-100.00,NW,325,16.0,24.0,69,0.00,,,0.00,189.000000,,2013-01-30 20:42:00,
2013-01-30 15:12:00,17.0,8.0,-100.00,NNW,328,15.0,26.0,68,0.00,,,0.00,172.000000,,2013-01-30 21:12:00,
2013-01-30 15:23:00,17.0,8.0,-100.00,NNW,328,15.0,26.0,68,0.00,,,0.00,172.000000,,2013-01-30 21:23:00,
2013-01-30 15:32:00,17.0,8.0,-100.00,NNW,328,15.0,26.0,68,0.00,,,0.00,172.000000,,2013-01-30 21:32:00,
2013-01-30 15:42:00,17.0,8.0,-100.00,NNW,328,15.0,26.0,68,0.00,,,0.00,172.000000,,2013-01-30 21:42:00,
2013-01-30 16:12:00,17.0,7.0,-100.00,NW,324,11.0,25.0,65,0.00,,,0.00,131.000000,,2013-01-30 22:12:00,
2013-01-30 16:22:00,17.0,7.0,-100.00,NW,324,11.0,25.0,65,0.00,,,0.00,131.000000,,2013-01-30 22:22:00,
2013-01-30 16:32:00,17.0,7.0,-100.00,NW,324,11.0,25.0,65,0.00,,,0.00,131.000000,,2013-01-30 22:32:00,
2013-01-30 16:42:00,17.0,7.0,-100.00,NW,324,11.0,25.0,65,0.00,,,0.00,131.000000,,2013-01-30 22:42:00,
2013-01-30 17:12:00,15.0,6.0,-100.00,NW,306,16.0,25.0,68,0.00,,,0.00,41.000000,,2013-01-30 23:12:00,
2013-01-30 17:22:00,15.0,6.0,-100.00,NW,306,16.0,25.0,68,0.00,,,0.00,41.000000,,2013-01-30 23:22:00,
2013-01-30 17:32:00,15.0,6.0,-100.00,NW,306,16.0,25.0,68,0.00,,,0.00,41.000000,,2013-01-30 23:32:00,
2013-01-30 17:42:00,15.0,6.0,-100.00,NW,306,16.0,25.0,68,0.00,,,0.00,41.000000,,2013-01-30 23:42:00,
2013-01-30 18:11:00,13.0,5.0,-100.00,NW,311,15.0,21.0,70,0.00,,,0.00,6.000000,,2013-01-31 00:11:00,
2013-01-30 18:22:00,13.0,5.0,-100.00,NW,311,15.0,21.0,70,0.00,,,0.00,6.000000,,2013-01-31 00:22:00,
2013-01-30 18:32:00,13.0,5.0,-100.00,NW,311,15.0,21.0,70,0.00,,,0.00,6.000000,,2013-01-31 00:32:00,
2013-01-30 18:42:00,13.0,5.0,-100.00,NW,311,15.0,21.0,70,0.00,,,0.00,6.000000,,2013-01-31 00:42:00,
2013-01-30 19:12:00,13.0,5.0,-100.00,NW,309,16.0,24.0,70,0.00,,,0.00,1.000000,,2013-01-31 01:12:00,
2013-01-30 19:21:00,13.0,5.0,-100.00,NW,309,16.0,24.0,70,0.00,,,0.00,1.000000,,2013-01-31 01:21:00,
2013-01-30 19:32:00,13.0,5.0,-100.00,NW,309,16.0,24.0,70,0.00,,,0.00,1.000000,,2013-01-31 01:32:00,
2013-01-30 19:42:00,13.0,5.0,-100.00,NW,309,16.0,24.0,70,0.00,,,0.00,1.000000,,2013-01-31 01:42:00,
2013-01-30 20:12:00,12.0,5.0,-100.00,WNW,301,14.0,20.0,72,0.00,,,0.00,1.000000,,2013-01-31 02:12:00,
2013-01-30 20:21:00,12.0,5.0,-100.00,WNW,301,14.0,20.0,72,0.00,,,0.00,1.000000,,2013-01-31 02:21:00,
2013-01-30 20:32:00,12.0,5.0,-100.00,WNW,301,14.0,20.0,72,0.00,,,0.00,1.000000,,2013-01-31 02:32:00,
2013-01-30 20:42:00,12.0,5.0,-100.00,WNW,301,14.0,20.0,72,0.00,,,0.00,1.000000,,2013-01-31 02:42:00,
2013-01-30 21:11:00,12.0,4.0,-100.00,NW,308,13.0,20.0,71,0.00,,,0.00,1.000000,,2013-01-31 03:11:00,
2013-01-30 21:21:00,12.0,4.0,-100.00,NW,308,13.0,20.0,71,0.00,,,0.00,1.000000,,2013-01-31 03:21:00,
2013-01-30 21:32:00,12.0,4.0,-100.00,NW,308,13.0,20.0,71,0.00,,,0.00,1.000000,,2013-01-31 03:32:00,
2013-01-30 21:41:00,12.0,4.0,-100.00,NW,308,13.0,20.0,71,0.00,,,0.00,1.000000,,2013-01-31 03:41:00,
2013-01-30 22:11:00,11.0,3.0,-100.00,WNW,301,16.0,23.0,71,0.00,,,0.00,1.000000,,2013-01-31 04:11:00,
2013-01-30 22:22:00,11.0,3.0,-100.00,WNW,301,16.0,23.0,71,0.00,,,0.00,1.000000,,2013-01-31 04:22:00,
2013-01-30 22:32:00,11.0,3.0,-100.00,WNW,301,16.0,23.0,71,0.00,,,0.00,1.000000,,2013-01-31 04:32:00,
2013-01-30 22:41:00,11.0,3.0,-100.00,WNW,301,16.0,23.0,71,0.00,,,0.00,1.000000,,2013-01-31 04:41:00,
2013-01-30 23:11:00,9.0,2.0,-100.00,WNW,295,11.0,22.0,73,0.00,,,0.00,1.000000,,2013-01-31 05:11:00,
2013-01-30 23:22:00,9.0,2.0,-100.00,WNW,295,11.0,22.0,73,0.00,,,0.00,1.000000,,2013-01-31 05:22:00,
2013-01-30 23:32:00,9.0,2.0,-100.00,WNW,295,11.0,22.0,73,0.00,,,0.00,1.000000,,2013-01-31 05:32:00,
2013-01-30 23:41:00,9.0,2.0,-100.00,WNW,295,11.0,22.0,73,0.00,,,0.00,1.000000,,2013-01-31 05:41:00,